Location: Unspecified
(48.5670°N, 0.0000°E)
Time: 12:55:35
(UTC+00:00)

Vanguard 2 Rocket - Pass Details

Date: 25 August 2019
Orbit: 554 x 3327 km, 32.9° (Epoch: 16 September)

Event Time Altitude Azimuth Distance (km) Brightness Sun altitude
Rises 05:22:37 0° 258° (WSW) 5,622 10.2 1.7°
Reaches altitude 10° 05:26:02 10° 252° (WSW) 4,945 10.0 2.2°
Maximum altitude 05:40:14 45° 187° (S) 3,791 10.0 4.5°
Drops below altitude 10° 05:58:34 10° 124° (SE) 6,259 12.0 7.5°
Sets 06:03:37 0° 119° (ESE) 7,179 12.5 8.3°
